x

Susquehanna, Md (44057) Weather Station

5:20pm - Thu 31st Jul 2014 All times are EDT. -4 hours from GMT.

  • Wind
    9mph, 13mph gusts
  • Air Temp 82°f
  • Sea Pressure 1018.3mb
  • Susquehanna, Md
  • Susquehanna, Md

More Historic Weather Station data

Upgrade to MSW Pro to gain access to the past 30 days of data for over 8000 Wavebouys and Weather Stations around the globe.

Join Pro

Comparision Forecast

View Surf forecast
   
Thu 07/31 5:20pm 9 13 mph 1018.3mb - 82f
5:10pm 11 13 mph 1018.3mb - 82f
5:00pm 9 11 mph 1018.3mb 82f 82f
4:50pm 9 11 mph 1018.4mb - 81f
4:40pm 11 13 mph 1018.4mb - 81f
4:30pm 9 11 mph 1018.4mb - 82f
4:20pm 9 11 mph 1018.4mb - 81f
4:10pm 11 13 mph 1018.4mb - 81f
4:00pm 9 11 mph 1018.4mb 82f 81f
3:50pm 11 13 mph 1018.5mb - 81f
3:40pm 9 13 mph 1018.5mb - 81f
3:30pm 9 11 mph 1018.5mb - 80f
3:20pm 9 11 mph 1018.6mb - 80f
3:10pm 9 13 mph 1018.6mb - 80f
3:00pm 9 11 mph 1018.5mb 82f 80f
2:50pm 9 13 mph 1018.6mb - 80f
2:40pm 9 11 mph 1018.6mb - 79f
2:30pm 11 13 mph 1018.6mb - 79f
2:20pm 11 13 mph 1018.6mb - 79f
2:10pm 9 13 mph 1018.7mb - 79f
2:00pm 9 11 mph 1018.7mb 81f 79f
1:50pm 9 13 mph 1018.7mb - 78f
1:40pm 9 16 mph 1018.7mb - 78f
1:30pm 9 11 mph 1018.8mb - 78f
1:20pm 11 13 mph 1018.8mb - 77f
1:10pm 11 13 mph 1018.8mb - 77f
1:00pm 9 13 mph 1018.9mb 81f 76f
12:50pm 9 11 mph 1018.9mb - 76f
12:40pm 9 13 mph 1018.9mb - 76f
12:30pm 9 11 mph 1018.9mb - 76f
12:20pm 9 11 mph 1019mb - 76f
12:10pm 9 11 mph 1019mb - 76f
12:00pm 11 13 mph 1019.1mb 81f 75f
11:50am 11 13 mph 1019.1mb - 75f
11:40am 9 11 mph 1019.1mb - 75f
11:30am 9 11 mph 1019.1mb - 75f
11:20am 7 11 mph 1019.3mb - 75f
11:10am 9 11 mph 1019.3mb - 75f
11:00am 9 11 mph 1019.2mb 81f 74f
10:50am 9 11 mph 1019.1mb - 74f
10:40am 7 9 mph 1019mb - 74f
10:30am 7
mph
1019mb - 74f
10:20am 7 9 mph 1018.9mb - 74f
10:10am 7 9 mph 1018.9mb - 74f
10:00am 7 9 mph 1018.9mb 81f 73f
9:50am 7 11 mph 1018.9mb - 73f
9:40am 7 9 mph 1018.9mb - 73f
9:30am 4 9 mph 1019mb - 73f
9:20am 4 7 mph 1019mb - 72f
9:10am 4 11 mph 1019mb - 72f
9:00am 7 20 mph 1019.2mb 81f 73f
8:50am 4 16 mph 1019.3mb - 72f
8:40am 4 9 mph 1019.3mb - 73f
8:30am 4 9 mph 1019.1mb - 72f
8:20am 2 4 mph 1019.1mb - 72f
8:10am 2 4 mph 1019mb - 72f
8:00am 2 4 mph 1019mb 80f 71f
7:50am 2
mph
1019mb - 71f
7:40am 2 4 mph 1019mb - 71f
7:30am 2 4 mph 1019mb - 70f
7:20am 2 4 mph 1018.9mb - 70f
7:10am 2 4 mph 1018.8mb - 69f
7:00am 4 7 mph 1018.8mb 80f 70f
6:50am 2 4 mph 1018.7mb - 69f
6:40am 2
mph
1018.7mb - 68f
6:30am 2 4 mph 1018.6mb - 68f
6:20am 2 4 mph 1018.5mb - 68f
6:10am 4
mph
1018.4mb - 67f
6:00am 2 4 mph 1018.3mb 80f 67f
5:50am 2 4 mph 1018.2mb - 67f
5:40am 2
mph
1018.1mb - 67f
5:30am 2
mph
1018.1mb - 67f
5:20am 4
mph
1018mb - 68f
5:10am 2 4 mph 1018mb - 68f
5:00am 2 4 mph 1018mb 80f 68f
4:50am 2 4 mph 1017.9mb - 69f
4:40am  -  2 mph 1017.8mb - 69f
4:30am  -  2 mph 1017.9mb - 69f
4:20am 2
mph
1017.9mb - 69f
4:10am 4 7 mph 1017.9mb - 69f
4:00am 4 7 mph 1017.7mb 80f 70f
3:50am 4 7 mph 1017.8mb - 70f
3:40am 2 4 mph 1018mb - 69f
3:30am 2 4 mph 1017.9mb - 69f
3:20am 2 4 mph 1017.9mb - 69f
3:10am 2 4 mph 1018mb - 69f
3:00am 4 9 mph 1018.1mb 80f 68f
2:50am 7 11 mph 1018.1mb - 68f
2:40am 4 7 mph 1018mb - 68f
2:30am 4 7 mph 1017.9mb - 69f
2:20am 2 4 mph 1017.9mb - 69f
2:10am 4
mph
1017.9mb - 69f
2:00am 2
mph
1017.9mb 80f 70f
1:50am 2 4 mph 1017.9mb - 69f
1:40am 4
mph
1017.8mb - 70f
1:30am 2 4 mph 1017.8mb - 71f
1:20am 2
mph
1017.7mb - 72f
1:10am 2
mph
1017.7mb - 71f
1:00am 2 4 mph 1017.7mb 80f 72f
12:50am 2 4 mph 1017.7mb - 72f
12:40am 2
mph
1017.7mb - 72f
12:30am 2
mph
1017.7mb - 72f
12:20am 2 4 mph 1017.6mb - 72f
12:10am 4 7 mph 1017.6mb - 72f
12:00am 4
mph
1017.5mb 80f 73f
Wed 07/30 11:50pm 4
mph
1017.5mb - 73f
11:40pm 7 9 mph 1017.4mb - 74f
11:30pm 9 11 mph 1017.4mb - 74f
11:20pm 9 11 mph 1017.4mb - 74f
11:10pm 9 11 mph 1017.4mb - 74f
11:00pm 9 11 mph 1017.5mb 80f 74f
10:50pm 11 13 mph 1017.5mb - 74f
10:40pm 11 13 mph 1017.6mb - 75f
10:30pm 11 13 mph 1017.5mb - 75f
10:20pm 11 13 mph 1017.5mb - 75f
10:10pm 11 13 mph 1017.6mb - 75f
10:00pm 11 13 mph 1017.7mb 81f 75f
9:50pm 11 13 mph 1017.7mb - 75f
9:40pm 11 13 mph 1017.6mb - 75f
9:30pm 11 13 mph 1017.7mb - 75f
9:20pm 9 13 mph 1017.5mb - 75f
9:10pm 11
mph
1017.4mb - 75f
9:00pm 9 11 mph 1017.4mb 81f 75f
8:50pm 9 11 mph 1017.4mb - 76f
8:40pm 9 13 mph 1017.3mb - 76f
8:30pm 11 13 mph 1017.3mb - 76f
8:20pm 11 13 mph 1017.2mb - 75f
8:10pm 11 13 mph 1017.1mb - 76f
8:00pm 11 13 mph 1017mb 81f 76f
7:50pm 11 13 mph 1016.9mb - 76f
7:40pm 11 13 mph 1016.7mb - 76f
7:30pm 9 11 mph 1016.7mb - 76f
7:20pm 9 11 mph 1016.7mb - 76f
7:10pm 9 11 mph 1016.6mb - 77f
7:00pm 9 11 mph 1016.5mb 81f 77f
6:50pm 9 11 mph 1016.4mb - 77f
6:40pm 9 11 mph 1016.4mb - 77f
6:30pm 9 11 mph 1016.4mb - 76f
6:20pm 9 11 mph 1016.3mb - 76f
6:10pm 9 11 mph 1016.4mb - 76f
6:00pm 11 13 mph 1016.3mb 81f 76f
5:50pm 9 11 mph 1016.3mb - 77f
5:40pm 9 11 mph 1016.4mb - 77f
5:30pm 11 16 mph 1016.4mb - 76f
5:20pm 9 13 mph 1016.4mb - 76f
5:10pm 11 16 mph 1016.5mb - 76f
5:00pm 11 13 mph 1016.5mb 81f 76f
4:50pm 9 11 mph 1016.6mb - 76f
4:40pm 9
mph
1016.6mb - 76f
4:30pm 9 13 mph 1016.6mb - 76f
4:20pm 11 13 mph 1016.6mb - 76f
4:10pm 7 11 mph 1016.6mb - 76f
4:00pm 11 18 mph 1016.6mb 81f 75f
3:50pm 11 13 mph 1016.6mb - 75f
3:40pm 9 16 mph 1016.8mb - 75f
3:30pm 9 13 mph 1016.9mb - 75f
3:20pm 9 13 mph 1017mb - 75f
3:10pm 9 11 mph 1017mb - 74f
3:00pm 9 11 mph 1017mb 82f 74f
2:50pm 9 11 mph 1017.1mb - 74f
2:40pm 9 11 mph 1017.1mb - 74f
2:30pm 9 11 mph 1017.2mb - 73f
2:20pm 9 13 mph 1017.3mb - 73f
2:10pm 11 13 mph 1017.3mb - 73f
2:00pm 9 13 mph 1017.3mb 82f 73f
1:50pm 9 11 mph 1017.4mb - 73f
1:40pm 9 13 mph 1017.5mb - 73f
1:30pm 9 13 mph 1017.6mb - 72f
1:20pm 11 13 mph 1017.7mb - 72f
1:10pm 9 13 mph 1017.7mb - 72f
1:00pm 9 13 mph 1017.7mb 82f 72f
12:50pm 9 13 mph 1017.7mb - 72f
12:40pm 9 11 mph 1017.8mb - 71f
12:30pm 9 11 mph 1017.8mb - 71f
12:20pm 9 11 mph 1017.8mb - 71f
12:10pm 7 9 mph 1017.8mb - 71f
12:00pm 4
mph
1017.9mb 82f 71f
11:40am 4 7 mph 1018.1mb - 71f
11:30am 4 7 mph 1018.1mb - 70f
11:20am 4 7 mph 1018.1mb - 70f
11:10am 4 7 mph 1018.1mb - 71f
11:00am 4 18 mph 1018.1mb 81f 70f
10:50am 4 9 mph 1018.1mb - 70f
10:40am 4 9 mph 1018.1mb - 69f
10:30am 4 7 mph 1018.1mb - 69f
10:20am 4 7 mph 1018.1mb - 68f
10:10am 4 9 mph 1018.1mb - 68f
10:00am 7 9 mph 1018.1mb 80f 68f
9:50am 7 9 mph 1018.1mb - 67f
9:40am 7 9 mph 1018mb - 67f
9:30am 7 9 mph 1018mb - 67f
9:20am 7 9 mph 1018.1mb - 67f
9:10am 9
mph
1018.1mb - 67f
9:00am 9 11 mph 1018mb 81f 66f
8:50am 9 11 mph 1018mb - 66f
8:40am 9 11 mph 1018mb - 66f
8:30am 9 11 mph 1017.9mb - 65f
8:20am 9 11 mph 1017.8mb - 65f
8:10am 9 11 mph 1017.7mb - 64f
8:00am 9 11 mph 1017.7mb 81f 64f
7:50am 9 11 mph 1017.6mb - 64f
7:40am 9 11 mph 1017.6mb - 64f
7:30am 9 11 mph 1017.6mb - 64f
7:20am 7 9 mph 1017.5mb - 64f
7:10am 7 9 mph 1017.4mb - 64f
7:00am 7 11 mph 1017.3mb 81f 64f
6:50am 7 9 mph 1017.2mb - 64f
6:40am 7 9 mph 1017mb - 64f
6:30am 7 9 mph 1016.8mb - 64f
6:20am 7 9 mph 1016.7mb - 64f
6:10am 7 9 mph 1016.6mb - 64f
6:00am 7 9 mph 1016.5mb 81f 64f
5:50am 7 9 mph 1016.5mb - 64f
5:40am 9 11 mph 1016.3mb - 64f
5:30am 7 9 mph 1016.3mb - 64f
5:20am 9 11 mph 1016.2mb - 64f
5:10am 9 11 mph 1016.1mb - 64f
5:00am 9 11 mph 1016.1mb 81f 64f
4:50am 11 13 mph 1016mb - 64f
4:40am 11 13 mph 1016mb - 64f
4:30am 11 13 mph 1015.9mb - 65f
4:20am 11 13 mph 1015.8mb - 65f
4:10am 11 13 mph 1015.7mb - 65f
4:00am 11 13 mph 1015.6mb 81f 66f
3:50am 11 13 mph 1015.5mb - 65f
3:40am 11 13 mph 1015.5mb - 66f
3:30am 11 13 mph 1015.6mb - 66f
3:20am 11 13 mph 1015.6mb - 66f
3:10am 11 13 mph 1015.5mb - 66f
3:00am 11 13 mph 1015.6mb 81f 66f
2:50am 11 13 mph 1015.6mb - 66f
2:40am 11 13 mph 1015.6mb - 66f
2:30am 11 13 mph 1015.6mb - 66f
2:20am 11 13 mph 1015.6mb - 66f
2:10am 11 13 mph 1015.7mb - 66f
2:00am 11 13 mph 1015.7mb 81f 66f
1:50am 11 13 mph 1015.7mb - 66f
1:40am 11 13 mph 1015.6mb - 66f
1:30am 11 13 mph 1015.6mb - 67f
1:20am 11 13 mph 1015.6mb - 67f
1:10am 11 13 mph 1015.6mb - 67f
1:00am 11 13 mph 1015.6mb 81f 67f
12:50am 11 13 mph 1015.7mb - 67f
12:40am 11 13 mph 1015.8mb - 67f
12:30am 9 11 mph 1015.8mb - 67f
12:20am 9 11 mph 1015.7mb - 68f
12:10am 7 9 mph 1015.6mb - 68f
12:00am 7 9 mph 1015.5mb 81f 68f
Tue 07/29 11:50pm 7 9 mph 1015.4mb - 68f
11:40pm 7 9 mph 1015.4mb - 68f
11:30pm 7
mph
1015.5mb - 68f
11:20pm 7 9 mph 1015.6mb - 68f
11:10pm 7 9 mph 1015.6mb - 69f
11:00pm 7 9 mph 1015.7mb 81f 69f
10:50pm 7 9 mph 1015.7mb - 69f
10:40pm 9
mph
1015.6mb - 69f
10:30pm 9 11 mph 1015.6mb - 70f
10:20pm 9 11 mph 1015.6mb - 70f
10:10pm 9 11 mph 1015.5mb - 70f
10:00pm 9 13 mph 1015.4mb 81f 70f
9:50pm 7 11 mph 1015.4mb - 70f
9:40pm 7 11 mph 1015.2mb - 70f
9:30pm 9 11 mph 1015.1mb - 70f
9:20pm 9 11 mph 1015mb - 70f
9:10pm 9 11 mph 1014.9mb - 70f
9:00pm 7 9 mph 1014.9mb 82f 70f
8:50pm 7 9 mph 1014.8mb - 70f
8:40pm 7 9 mph 1014.8mb - 71f
8:30pm 7 9 mph 1014.7mb - 71f
8:20pm 7 9 mph 1014.6mb - 71f
8:10pm 7 9 mph 1014.6mb - 71f
8:00pm 7 9 mph 1014.6mb 82f 71f
7:50pm 7 9 mph 1014.6mb - 71f
7:40pm 7 9 mph 1014.6mb - 72f
7:30pm 7
mph
1014.6mb - 72f
7:20pm 7 9 mph 1014.5mb - 72f
7:10pm 7 9 mph 1014.4mb - 72f
7:00pm 7 9 mph 1014.3mb 82f 72f
6:50pm 7 9 mph 1014.3mb - 72f
6:40pm 7 9 mph 1014.1mb - 72f
6:30pm 7 9 mph 1014mb - 72f
6:20pm 4 11 mph 1014mb - 72f
6:10pm 9 11 mph 1014mb - 72f
6:00pm 9
mph
1013.9mb 82f 72f
5:50pm 4 9 mph 1013.7mb - 72f
5:40pm 4 9 mph 1013.6mb - 72f
5:30pm 7
mph
1013.5mb - 72f
5:20pm 4 7 mph 1013.5mb - 72f
5:10pm 2 4 mph 1013.4mb - 72f
5:00pm 4
mph
1013.3mb 82f 72f
4:50pm 4 7 mph 1013.3mb - 73f
4:30pm 2 4 mph 1013.2mb - 72f
4:20pm  -  2 mph 1013.1mb - 72f
4:10pm 2 4 mph 1013.1mb - 72f
4:00pm 2 7 mph 1013mb 82f 72f
3:50pm 2 7 mph 1013mb - 72f
3:40pm 4 7 mph 1013mb - 72f
3:30pm 2 9 mph 1013mb - 72f
3:20pm 4 7 mph 1013mb - 72f
3:10pm 4 7 mph 1012.9mb - 72f
3:00pm 4 7 mph 1012.9mb 82f 72f
2:50pm 7 9 mph 1012.9mb - 71f
2:40pm 7 11 mph 1012.8mb - 71f
2:30pm 4 9 mph 1012.8mb - 71f
2:20pm 4 9 mph 1012.7mb - 71f
2:10pm 4 9 mph 1012.6mb - 72f
2:00pm 2 4 mph 1012.5mb 81f 71f
1:40pm 4 9 mph 1012.6mb - 71f
1:30pm 7 9 mph 1012.7mb - 71f
1:20pm 7 9 mph 1012.6mb - 71f
1:10pm 7 9 mph 1012.5mb - 71f
1:00pm 4 9 mph 1012.4mb 82f 71f
12:50pm 7 9 mph 1012.5mb - 71f
12:40pm 7 9 mph 1012.5mb - 71f
12:30pm 7 11 mph 1012.5mb - 71f
12:20pm 4 9 mph 1012.5mb - 71f
12:10pm 7 11 mph 1012.6mb - 71f
12:00pm 4 9 mph 1012.6mb 82f 71f
11:50am 7 11 mph 1012.6mb - 70f
11:40am 7 11 mph 1012.7mb - 70f
11:30am 7 11 mph 1012.8mb - 70f
11:20am 9 11 mph 1012.8mb - 70f
11:10am 7 11 mph 1012.8mb - 69f
11:00am 9 13 mph 1012.8mb 81f 69f
10:50am 9 13 mph 1012.8mb - 69f
10:40am 7 11 mph 1012.8mb - 69f
10:30am 7 13 mph 1012.8mb - 69f
10:20am 7 11 mph 1012.8mb - 69f
10:10am 9 11 mph 1012.9mb - 69f
10:00am 9 11 mph 1012.8mb 81f 69f
9:50am 9 16 mph 1012.9mb - 69f
9:40am 11 16 mph 1012.9mb - 68f
9:30am 7 11 mph 1012.9mb - 69f
9:20am 7 11 mph 1012.9mb - 68f
9:10am 4 11 mph 1012.8mb - 69f
9:00am 9 16 mph 1012.8mb 81f 68f
8:50am 9 11 mph 1012.8mb - 68f
8:40am 9 16 mph 1012.7mb - 67f
8:30am 9 16 mph 1012.6mb - 67f
8:20am 9 13 mph 1012.6mb - 67f
8:10am 7 13 mph 1012.5mb - 67f
8:00am 7 11 mph 1012.4mb 81f 66f
7:50am 9 13 mph 1012.3mb - 66f
7:40am 11 13 mph 1012.2mb - 66f
7:30am 11 16 mph 1012.1mb - 66f
7:20am 13 16 mph 1011.9mb - 66f
7:10am 11 16 mph 1011.9mb - 66f
7:00am 11 13 mph 1011.8mb 81f 66f
6:50am 9 16 mph 1011.6mb - 66f
6:40am 9 11 mph 1011.5mb - 66f
6:30am 9 16 mph 1011.5mb - 66f
6:20am 11 16 mph 1011.4mb - 66f
6:10am 11 16 mph 1011.3mb - 66f
6:00am 9 13 mph 1011.2mb 81f 67f
5:50am 11 16 mph 1011.1mb - 67f
5:40am 9 13 mph 1011.1mb - 67f
5:30am 7 13 mph 1010.9mb - 66f
5:20am 7 11 mph 1010.9mb - 66f
5:10am 7 9 mph 1010.8mb - 66f
5:00am 7 13 mph 1010.7mb 81f 67f
4:50am 9 11 mph 1010.6mb - 67f
4:40am 11 16 mph 1010.4mb - 67f
4:30am 11 16 mph 1010.3mb - 67f
4:20am 11 13 mph 1010.2mb - 67f
4:10am 11 16 mph 1010.1mb - 67f
4:00am 13 20 mph 1009.9mb 81f 67f
3:50am 13 18 mph 1009.9mb - 68f
3:40am 13 20 mph 1010mb - 68f
3:30am 13 18 mph 1009.9mb - 68f
3:20am 11 16 mph 1009.9mb - 68f
3:10am 11 18 mph 1009.9mb - 68f
3:00am 11 18 mph 1009.9mb 81f 68f
2:50am 11 13 mph 1009.8mb - 68f
2:40am 11 16 mph 1009.8mb - 68f
2:30am 9 13 mph 1009.7mb - 69f
2:20am 11 16 mph 1009.5mb - 69f
2:10am 13 18 mph 1009.3mb - 69f
2:00am 13 18 mph 1009.4mb 82f 69f
1:50am 13 18 mph 1009.3mb - 69f
1:40am 13 18 mph 1009.2mb - 69f
1:30am 13 16 mph 1009.1mb - 69f
1:20am 13 20 mph 1009mb - 69f
1:10am 13 18 mph 1008.9mb - 69f
1:00am 13 18 mph 1008.8mb 82f 69f
12:50am 13 20 mph 1008.6mb - 70f
12:40am 13 18 mph 1008.6mb - 70f
12:30am 16 20 mph 1008.6mb - 70f
12:20am 18 22 mph 1008.6mb - 70f
12:10am 18 22 mph 1008.5mb - 71f
12:00am 13 20 mph 1008.5mb 82f 70f
Mon 07/28 11:50pm 11 16 mph 1008.6mb - 70f
11:40pm 11 16 mph 1008.6mb - 70f
11:30pm 13 16 mph 1008.6mb - 70f
11:20pm 13 18 mph 1008.5mb - 70f
11:10pm 13 18 mph 1008.5mb - 70f
11:00pm 11 16 mph 1008.4mb 82f 70f
10:50pm 11 16 mph 1008.4mb - 70f
10:40pm 11 13 mph 1008.3mb - 70f
10:30pm 9 13 mph 1008.3mb - 70f
10:20pm 9 13 mph 1008.2mb - 70f
10:10pm 11 18 mph 1008.1mb - 71f
10:00pm 13 18 mph 1008mb 82f 71f
9:50pm 13 18 mph 1007.9mb - 71f
9:40pm 11 16 mph 1007.7mb - 71f
9:30pm 13 20 mph 1007.4mb - 71f
9:20pm 13 20 mph 1007.2mb - 72f
9:10pm 16 20 mph 1007mb - 72f
9:00pm 16 20 mph 1006.6mb 82f 72f
8:50pm 16 20 mph 1006.5mb - 73f
8:40pm 18 25 mph 1006.3mb - 73f
8:30pm 22 27 mph 1006.2mb - 73f
8:20pm 20 25 mph 1006mb - 74f
8:10pm 18 27 mph 1005.7mb - 77f
8:00pm 11 16 mph 1005.3mb 82f 78f
7:50pm 11 16 mph 1005mb - 78f
7:40pm 13 18 mph 1004.9mb - 79f
7:30pm 11 13 mph 1004.8mb - 79f
7:20pm 13 20 mph 1004.7mb - 79f
7:10pm 13 22 mph 1004.6mb - 79f
7:00pm 13 20 mph 1004.5mb 83f 79f
6:50pm 13 18 mph 1004.4mb - 80f
6:40pm 16 20 mph 1004.3mb - 80f
6:30pm 16 25 mph 1004.3mb - 80f
6:20pm 18 27 mph 1004.2mb - 80f
6:10pm 18 25 mph 1004.2mb - 80f
6:00pm 16 22 mph 1004mb 83f 80f
5:50pm 18 22 mph 1003.8mb - 81f
5:40pm 13 18 mph 1003.6mb - 81f
5:30pm 16 25 mph 1003.7mb - 80f
5:20pm 18 29 mph 1003.6mb - 81f
5:10pm 18 27 mph 1003.5mb - 81f
5:00pm 20 29 mph 1003.4mb 82f 81f
4:50pm 20 29 mph 1003.2mb - 82f
4:40pm 18 25 mph 1003.1mb - 81f
4:30pm 18 25 mph 1003.1mb - 81f
4:20pm 20 29 mph 1003.1mb - 81f
4:10pm 18 27 mph 1003.1mb - 81f
4:00pm 18 27 mph 1003.1mb 82f 81f
3:50pm 18 29 mph 1003.2mb - 80f
3:40pm 13 27 mph 1003.1mb - 80f
3:30pm 18 27 mph 1003mb - 80f
3:20pm 22 34 mph 1003mb - 81f
3:10pm 18 29 mph 1003mb - 81f
3:00pm 20 29 mph 1002.9mb 82f 81f
2:50pm 18 22 mph 1002.8mb - 80f
2:40pm 18 27 mph 1002.8mb - 80f
2:30pm 16 27 mph 1002.8mb - 80f
2:20pm 16 22 mph 1002.9mb - 80f
2:10pm 16 22 mph 1002.9mb - 80f
2:00pm 18 25 mph 1002.8mb 82f 80f
1:50pm 18 27 mph 1002.8mb - 80f
1:40pm 18 27 mph 1002.8mb - 80f
1:30pm 20 29 mph 1002.9mb - 80f
1:20pm 18 25 mph 1002.9mb - 80f
1:10pm 16 22 mph 1002.9mb - 80f
1:00pm 18 27 mph 1002.9mb 82f 80f
12:50pm 18 29 mph 1002.8mb - 79f
12:40pm 16 25 mph 1002.8mb - 79f
12:30pm 16 22 mph 1002.9mb - 79f
12:20pm 13 20 mph 1002.9mb - 78f
12:10pm 13 18 mph 1003mb - 78f
12:00pm 13 20 mph 1002.9mb 82f 78f
11:50am 16 25 mph 1002.9mb - 78f
11:40am 20 25 mph 1002.8mb - 79f
11:30am 16 22 mph 1002.8mb - 79f
11:20am 18 27 mph 1002.7mb - 79f
11:10am 13 22 mph 1002.6mb - 79f
11:00am 13 20 mph 1002.5mb 81f 78f
10:50am 18 27 mph 1002.6mb - 78f
10:40am 16 22 mph 1002.5mb - 78f
10:30am 16 22 mph 1002.5mb - 78f
10:20am 16 25 mph 1002.5mb - 78f
10:10am 16 22 mph 1002.3mb - 78f
10:00am 13 20 mph 1002.3mb 81f 78f
9:50am 16 22 mph 1002.2mb - 78f
9:40am 13 20 mph 1002.2mb - 77f
9:30am 11 18 mph 1002.2mb - 77f
9:20am 11 16 mph 1002.2mb - 77f
9:10am 11 16 mph 1002.1mb - 76f
9:00am 11 13 mph 1001.9mb 81f 76f
8:50am 11 16 mph 1001.9mb - 76f
8:40am 11 16 mph 1001.8mb - 75f
8:30am 11 13 mph 1001.7mb - 75f
8:20am 11 16 mph 1001.6mb - 74f
8:10am 11 16 mph 1001.6mb - 74f
8:00am 13 18 mph 1001.6mb 82f 73f
7:50am 11 13 mph 1001.6mb - 73f
7:40am 9 13 mph 1001.6mb - 72f
7:30am 9 11 mph 1001.5mb - 72f
7:20am 9 11 mph 1001.4mb - 73f
7:10am 9 11 mph 1001.4mb - 72f
7:00am 9 11 mph 1001.4mb 82f 72f
6:50am 9 11 mph 1001.4mb - 71f
6:40am 9 11 mph 1001.4mb - 71f
6:30am 9 11 mph 1001.2mb - 71f
6:20am 9
mph
1001mb - 71f
6:10am 4 7 mph 1000.8mb - 71f
6:00am 4 7 mph 1000.7mb 82f 71f
5:50am 4 7 mph 1000.9mb - 71f
5:40am 4 9 mph 1001mb - 71f
5:30am 7 9 mph 1001.1mb - 71f
5:20am 7
mph
1001.1mb - 71f
5:10am 4 7 mph 1001.1mb - 71f
5:00am 7
mph
1001mb 82f 71f
4:50am 7
mph
1000.9mb - 71f
4:40am 7 9 mph 1000.9mb - 72f
4:30am 7
mph
1000.9mb - 71f
4:20am 4
mph
1001mb - 71f
4:10am 4
mph
1001.2mb - 71f
4:00am 4 7 mph 1001.4mb 82f 71f
3:50am 4 7 mph 1001.5mb - 71f
3:40am 4 7 mph 1001.4mb - 72f
3:30am 2 4 mph 1001.4mb - 72f
3:20am 4
mph
1001.5mb - 72f
3:10am 4 7 mph 1001.5mb - 74f
3:00am 4
mph
1001.4mb 82f 73f
2:50am 4 7 mph 1001.3mb - 73f
2:40am 4 7 mph 1001.4mb - 73f
2:30am 4 7 mph 1001.5mb - 72f
2:20am 2 7 mph 1001.8mb - 72f
2:10am 2 7 mph 1002mb - 73f
2:00am 4 7 mph 1002.2mb 82f 72f
1:50am 2 9 mph 1002.6mb - 72f
1:40am 2 4 mph 1002.7mb - 71f
1:30am 4 7 mph 1002.6mb - 71f
1:20am 7 9 mph 1001.9mb - 70f
1:10am 2 9 mph 1002.2mb - 69f
1:00am 7 16 mph 1002.9mb 82f 69f
12:50am 16 27 mph 1003.2mb - 70f
12:40am 25 38 mph 1003.4mb - 72f
12:30am 20 34 mph 1003.6mb - 72f
12:20am 11 18 mph 1003.2mb - 72f
12:10am 11 13 mph 1003.3mb - 72f
12:00am 11 16 mph 1003.5mb 82f 73f
Sun 07/27 11:50pm 13 16 mph 1003.5mb - 74f
11:40pm 13 20 mph 1003.3mb - 74f
11:30pm 16 20 mph 1003.3mb - 75f
11:20pm 11 20 mph 1003.8mb - 77f
11:10pm 13 16 mph 1003.6mb - 80f
11:00pm 13 16 mph 1003.5mb 82f 79f
10:50pm 11 16 mph 1003.5mb - 79f
10:40pm 13 16 mph 1003.6mb - 80f
10:30pm 16 18 mph 1003.9mb - 80f
10:20pm 13 18 mph 1004mb - 80f
10:10pm 13 16 mph 1004.1mb - 80f